GW4049 Weather Reports


time (UTC)temp
F
wind
direction
speed
knots
gust
knots
rain 1hr
in
rain 24hr
in
rain mn
in
humidity
%
barometer
mb
20260902152916 63 54 2.6 6.1 0.00 0.00 0.00 44 1032.7
20260902152412 63 300 0.9 3.5 0.00 0.00 0.00 45 1032.3
20260902151907 63 223 0.9 3.5 0.00 0.00 0.00 44 1032.5
20260902151402 63 59 2.6 2.6 0.00 0.00 0.00 43 1032.4
20260902150857 64 264 0.0 2.6 0.00 0.00 0.00 42 1032.4
20260902150353 63 225 1.7 3.5 0.00 0.00 0.00 43 1032.5
20260902145852 63 188 4.3 5.2 0.00 0.00 0.00 42 1032.3
20260902145348 62 127 2.6 5.2 0.00 0.00 0.00 42 1032.4
20260902144842 62 182 1.7 3.5 0.00 0.00 0.00 44 1032.3
20260902144338 62 189 3.5 5.2 0.00 0.00 0.00 42 1032.4
20260902143833 62 239 0.9 5.2 0.00 0.00 0.00 42 1032.5
20260902143327 61 204 2.6 2.6 0.00 0.00 0.00 41 1032.5
20260902142823 61 233 1.7 3.5 0.00 0.00 0.00 41 1032.7
20260902142320 61 235 2.6 5.2 0.00 0.00 0.00 42 1032.5
20260902141814 61 254 0.0 2.6 0.00 0.00 0.00 43 1032.5
20260902141310 60 200 0.9 3.5 0.00 0.00 0.00 44 1032.3
20260902140809 60 207 1.7 1.7 0.00 0.00 0.00 50 1032.1
20260902140305 60 254 1.7 6.1 0.00 0.00 0.00 44 1032.3
20260902135804 60 248 1.7 3.5 0.00 0.00 0.00 43 1032.1
20260902135300 59 240 0.0 0.0 0.00 0.00 0.00 53 1032.3
20260902134759 59 238 0.9 0.9 0.00 0.00 0.00 51 1032.3
20260902134255 58 258 0.9 7.0 0.00 0.00 0.00 47 1032.5
20260902133750 55 249 0.0 0.9 0.00 0.00 0.00 52 1032.3
20260902133249 55 240 0.9 0.9 0.00 0.00 0.00 53 1032.3
20260902132745 55 236 0.9 1.7 0.00 0.00 0.00 52 1032.1
20260902132240 56 234 0.9 1.7 0.00 0.00 0.00 50 1032.1
20260902131736 56 239 0.9 1.7 0.00 0.00 0.00 48 1032.4
20260902131232 56 206 3.5 3.5 0.00 0.00 0.00 45 1032.0
20260902130731 55 208 2.6 3.5 0.00 0.00 0.00 48 1032.3
20260902130227 54 252 0.9 3.5 0.00 0.00 0.00 46 1032.3
20260902125723 52 239 0.9 1.7 0.00 0.00 0.00 52 1032.3
20260902125219 52 234 0.9 1.7 0.00 0.00 0.00 51 1032.1
20260902124715 50 213 0.9 3.5 0.00 0.00 0.00 51 1032.0
20260902124209 49 205 2.6 3.5 0.00 0.00 0.00 51 1032.0
20260902123704 49 212 2.6 2.6 0.00 0.00 0.00 57 1031.6
20260902123201 50 197 2.6 2.6 0.00 0.00 0.00 53 1031.8
20260902122659 50 202 3.5 3.5 0.00 0.00 0.00 53 1031.9
20260902122156 50 203 3.5 3.5 0.00 0.00 0.00 53 1031.8
20260902121650 50 216 1.7 2.6 0.00 0.00 0.00 54 1031.6
20260902121144 50 212 2.6 2.6 0.00 0.00 0.00 50 1031.5
20260902120641 51 212 1.7 2.6 0.00 0.00 0.00 50 1031.8
20260902120137 51 228 1.7 2.6 0.00 0.00 0.00 51 1031.5
20260902115631 51 218 1.7 2.6 0.00 0.00 0.00 47 1031.9
20260902115127 53 225 2.6 2.6 0.00 0.00 0.00 43 1031.6
20260902114623 52 204 2.6 3.5 0.00 0.00 0.00 46 1031.9
20260902114123 50 189 3.5 5.2 0.00 0.00 0.00 48 1031.6
20260902113613 48 200 3.5 3.5 0.00 0.00 0.00 55 1031.6
20260902113108 49 205 2.6 2.6 0.00 0.00 0.00 57 1031.8
20260902112604 48 204 2.6 3.5 0.00 0.00 0.00 56 1031.6
20260902112100 48 201 2.6 2.6 0.00 0.00 0.00 61 1031.6
20260902111556 49 214 2.6 2.6 0.00 0.00 0.00 60 1031.6
20260902111051 50 209 2.6 2.6 0.00 0.00 0.00 60 1031.6
20260902110547 51 210 2.6 2.6 0.00 0.00 0.00 60 1031.6
20260902110043 49 209 2.6 3.5 0.00 0.00 0.00 61 1031.8
20260902105537 50 258 0.0 0.9 0.00 0.00 0.00 65 1031.8
20260902105032 50 207 2.6 2.6 0.00 0.00 0.00 64 1031.6
20260902104528 51 211 2.6 2.6 0.00 0.00 0.00 63 1031.8
20260902104027 51 234 1.7 2.6 0.00 0.00 0.00 60 1031.8
20260902103522 50 233 1.7 2.6 0.00 0.00 0.00 65 1031.6
20260902103018 51 214 1.7 3.5 0.00 0.00 0.00 66 1031.8
20260902102514 51 204 3.5 3.5 0.00 0.00 0.00 66 1031.8
20260902102011 50 206 2.6 3.5 0.00 0.00 0.00 69 1031.5
20260902101506 51 210 1.7 2.6 0.00 0.00 0.00 71 1031.6
20260902101004 50 218 1.7 2.6 0.00 0.00 0.00 72 1031.8
20260902100459 50 225 1.7 1.7 0.00 0.00 0.00 73 1031.8
20260902095954 50 220 1.7 1.7 0.00 0.00 0.00 74 1031.8
20260902095448 50 208 2.6 2.6 0.00 0.00 0.00 74 1031.9
20260902094948 50 207 2.6 2.6 0.00 0.00 0.00 74 1031.6
20260902094443 50 211 2.6 2.6 0.00 0.00 0.00 74 1031.8
20260902093938 50 204 2.6 2.6 0.00 0.00 0.00 73 1031.8
20260902093433 51 207 2.6 2.6 0.00 0.00 0.00 71 1031.9
20260902092932 51 211 2.6 2.6 0.00 0.00 0.00 71 1031.9
20260902092428 51 207 2.6 2.6 0.00 0.00 0.00 70 1031.9
20260902091928 52 204 2.6 2.6 0.00 0.00 0.00 69 1032.0
20260902091423 52 208 2.6 3.5 0.00 0.00 0.00 69 1031.9
20260902090919 53 208 3.5 3.5 0.00 0.00 0.00 68 1031.8
20260902090414 52 199 2.6 3.5 0.00 0.00 0.00 68 1031.9
20260902085913 52 208 2.6 2.6 0.00 0.00 0.00 69 1032.1
20260902085408 52 218 1.7 2.6 0.00 0.00 0.00 69 1032.0
20260902084903 51 201 1.7 2.6 0.00 0.00 0.00 69 1031.8
20260902084400 51 204 2.6 2.6 0.00 0.00 0.00 70 1032.1
20260902083855 51 203 2.6 2.6 0.00 0.00 0.00 70 1032.0
20260902083355 51 206 2.6 3.5 0.00 0.00 0.00 70 1032.0
20260902082850 51 208 2.6 2.6 0.00 0.00 0.00 71 1031.9
20260902082346 51 205 2.6 2.6 0.00 0.00 0.00 70 1032.0
20260902081843 51 202 2.6 3.5 0.00 0.00 0.00 68 1031.8
20260902081338 51 211 1.7 3.5 0.00 0.00 0.00 68 1031.9
20260902080833 51 204 2.6 2.6 0.00 0.00 0.00 69 1032.1
20260902080330 52 205 2.6 2.6 0.00 0.00 0.00 69 1032.1
20260902075828 52 214 2.6 2.6 0.00 0.00 0.00 68 1032.1
20260902075325 52 206 2.6 2.6 0.00 0.00 0.00 68 1032.5
20260902074820 52 201 3.5 3.5 0.00 0.00 0.00 67 1032.4
20260902074315 53 210 2.6 2.6 0.00 0.00 0.00 66 1032.3
20260902073810 53 202 2.6 3.5 0.00 0.00 0.00 66 1032.0
20260902073306 53 200 2.6 2.6 0.00 0.00 0.00 66 1032.1
20260902072803 53 212 2.6 2.6 0.00 0.00 0.00 66 1032.0
20260902072257 52 207 2.6 2.6 0.00 0.00 0.00 66 1032.0
20260902071754 53 209 2.6 2.6 0.00 0.00 0.00 66 1032.3
20260902071249 53 208 2.6 2.6 0.00 0.00 0.00 66 1032.0
20260902070745 52 206 2.6 3.5 0.00 0.00 0.00 65 1032.3
20260902070245 52 202 3.5 3.5 0.00 0.00 0.00 66 1032.1
20260902065743 52 201 2.6 3.5 0.00 0.00 0.00 66 1032.0
20260902065239 52 208 2.6 2.6 0.00 0.00 0.00 68 1032.0
20260902064734 52 208 2.6 2.6 0.00 0.00 0.00 68 1032.1
20260902064230 52 208 2.6 2.6 0.00 0.00 0.00 67 1032.3
20260902063726 51 213 2.6 2.6 0.00 0.00 0.00 67 1032.0
20260902063226 52 209 2.6 2.6 0.00 0.00 0.00 68 1032.3
20260902062720 52 204 2.6 2.6 0.00 0.00 0.00 68 1032.0
20260902062215 52 206 2.6 2.6 0.00 0.00 0.00 68 1032.4
20260902061714 52 205 2.6 2.6 0.00 0.00 0.00 68 1032.1
20260902061209 52 211 2.6 2.6 0.00 0.00 0.00 67 1032.1
20260902060706 52 208 2.6 2.6 0.00 0.00 0.00 67 1032.3
20260902060202 52 211 2.6 2.6 0.00 0.00 0.00 67 1032.1
20260902055657 52 212 2.6 2.6 0.00 0.05 0.05 67 1032.1
20260902055153 52 212 2.6 2.6 0.00 0.05 0.05 67 1032.3
20260902054648 52 212 2.6 2.6 0.00 0.05 0.05 68 1032.4
20260902054143 52 215 2.6 2.6 0.00 0.05 0.05 69 1032.4
20260902053633 52 207 2.6 2.6 0.00 0.05 0.05 67 1032.4
20260902053132 51 208 2.6 2.6 0.00 0.05 0.05 68 1032.3
20260902052627 51 208 2.6 2.6 0.00 0.05 0.05 70 1032.1
20260902052123 51 206 2.6 2.6 0.00 0.05 0.05 71 1032.1
20260902051622 52 209 2.6 2.6 0.00 0.05 0.05 69 1032.3
20260902051121 52 213 1.7 1.7 0.00 0.05 0.05 70 1032.3
20260902050616 52 209 2.6 2.6 0.00 0.05 0.05 69 1032.4
20260902050111 52 211 2.6 2.6 0.00 0.05 0.05 70 1032.1
20260902045607 53 208 2.6 2.6 0.00 0.05 0.05 69 1032.3
20260902045103 53 211 2.6 2.6 0.00 0.05 0.05 68 1032.4
20260902044602 53 222 1.7 2.6 0.00 0.05 0.05 69 1032.4
20260902044058 53 205 2.6 2.6 0.00 0.05 0.05 68 1032.4
20260902043548 53 216 1.7 2.6 0.00 0.05 0.05 68 1032.4
20260902043042 53 231 1.7 1.7 0.00 0.05 0.05 67 1032.7
20260902042536 54 224 1.7 1.7 0.00 0.05 0.05 66 1032.5
20260902042031 54 237 0.9 1.7 0.00 0.05 0.05 67 1032.7
20260902041525 54 234 1.7 1.7 0.00 0.05 0.05 67 1032.7
20260902041020 55 252 0.0 0.9 0.00 0.05 0.05 66 1032.7
20260902040514 53 255 0.0 0.9 0.00 0.05 0.05 66 1032.8
20260902040009 53 225 0.9 2.6 0.00 0.05 0.05 68 1032.3
20260902035503 53 215 2.6 2.6 0.00 0.05 0.05 69 1032.3
20260902035002 53 207 1.7 1.7 0.00 0.05 0.05 71 1032.5
20260902034457 53 208 2.6 2.6 0.00 0.05 0.05 71 1032.8
20260902033951 53 206 1.7 2.6 0.00 0.05 0.05 72 1032.5
20260902033450 53 215 1.7 2.6 0.00 0.05 0.05 70 1032.4
20260902032949 53 204 1.7 2.6 0.00 0.05 0.05 70 1032.5
20260902032444 53 212 1.7 2.6 0.00 0.05 0.05 69 1032.5
20260902031938 53 210 2.6 2.6 0.00 0.05 0.05 70 1032.8
20260902031428 53 212 2.6 2.6 0.00 0.05 0.05 68 1032.7
20260902030924 54 230 1.7 1.7 0.00 0.05 0.05 70 1032.4
20260902030419 54 228 1.7 1.7 0.00 0.05 0.05 69 1032.7
20260902025917 55 223 1.7 2.6 0.00 0.05 0.05 68 1032.3
20260902025413 55 216 1.7 2.6 0.00 0.05 0.05 66 1032.5
20260902024908 55 228 1.7 1.7 0.00 0.05 0.05 64 1032.4
20260902024403 55 218 1.7 1.7 0.00 0.05 0.05 66 1032.3
20260902023859 54 218 2.6 2.6 0.00 0.05 0.05 68 1032.1
20260902023354 54 207 2.6 2.6 0.00 0.05 0.05 67 1032.3
20260902022853 54 199 2.6 2.6 0.00 0.05 0.05 67 1032.1
20260902022348 54 210 2.6 2.6 0.00 0.05 0.05 68 1031.9
20260902021844 54 212 1.7 2.6 0.00 0.05 0.05 69 1031.8
20260902021339 54 213 1.7 2.6 0.00 0.05 0.05 68 1031.9
20260902020834 55 217 1.7 1.7 0.00 0.05 0.05 67 1031.8
20260902020331 55 221 1.7 1.7 0.00 0.05 0.05 67 1032.0
20260902015826 55 223 1.7 2.6 0.00 0.05 0.05 67 1031.6
20260902015322 55 212 1.7 2.6 0.00 0.05 0.05 66 1031.8
20260902014817 55 216 1.7 2.6 0.00 0.05 0.05 66 1031.6
20260902014314 55 213 1.7 2.6 0.00 0.05 0.05 67 1031.5
20260902013812 55 208 2.6 2.6 0.00 0.05 0.05 66 1031.8
20260902013308 56 211 2.6 2.6 0.00 0.05 0.05 68 1031.6
20260902012803 56 216 1.7 2.6 0.00 0.05 0.05 67 1031.6
20260902012259 56 220 1.7 1.7 0.00 0.05 0.05 70 1031.6
20260902011754 56 212 1.7 2.6 0.00 0.05 0.05 71 1031.8
20260902011254 57 220 1.7 1.7 0.00 0.05 0.05 67 1031.9
20260902010748 57 224 1.7 1.7 0.00 0.05 0.05 70 1032.0
20260902010244 56 219 1.7 1.7 0.00 0.05 0.05 71 1031.8
20260902005742 56 221 1.7 1.7 0.00 0.05 0.05 72 1032.0
20260902005238 56 224 1.7 2.6 0.00 0.05 0.05 79 1031.8
20260902004737 56 218 1.7 1.7 0.00 0.05 0.05 78 1031.8
20260902004232 55 211 2.6 2.6 0.00 0.05 0.05 78 1031.9
20260902003727 56 233 1.7 1.7 0.00 0.05 0.05 82 1031.9
20260902003223 56 237 0.9 1.7 0.00 0.05 0.05 85 1032.1
20260902002718 57 227 1.7 1.7 0.00 0.05 0.05 86 1031.6
20260902002218 59 228 1.7 1.7 0.00 0.05 0.05 78 1031.8
20260902001713 61 240 0.9 0.9 0.00 0.05 0.05 66 1031.8
20260902001208 63 248 0.9 0.9 0.00 0.05 0.05 56 1031.9
20260902000703 63 254 0.0 0.0 0.00 0.05 0.05 56 1032.0
20260902000158 64 271 0.0 0.0 0.00 0.05 0.05 50 1031.6
20260901235657 64 261 0.0 0.0 0.00 0.05 0.05 52 1031.9
20260901235153 64 250 0.0 1.7 0.00 0.05 0.05 49 1031.8
20260901234652 64 257 0.0 0.0 0.00 0.05 0.05 51 1031.8
20260901234147 64 285 0.9 0.9 0.00 0.05 0.05 50 1031.9
20260901233642 64 275 0.0 0.9 0.00 0.05 0.05 51 1031.9
20260901233138 64 248 0.0 0.0 0.00 0.05 0.05 51 1031.8
20260901232638 64 267 0.0 1.7 0.00 0.05 0.05 53 1031.8
20260901232133 64 253 0.0 0.9 0.00 0.05 0.05 51 1031.6
20260901231630 64 266 0.9 2.6 0.00 0.05 0.05 57 1031.8
20260901231126 64 307 2.6 2.6 0.00 0.05 0.05 49 1031.9
20260901230621 64 338 0.0 3.5 0.00 0.05 0.05 49 1031.8
20260901230121 64 67 1.7 7.0 0.00 0.05 0.05 49 1031.8
20260901225616 65 25 2.6 5.2 0.00 0.05 0.05 48 1031.5
20260901225116 66 242 0.0 2.6 0.00 0.05 0.05 46 1031.5
20260901224612 67 263 0.0 3.5 0.00 0.05 0.05 41 1031.8
20260901224108 67 256 0.9 1.7 0.00 0.05 0.05 42 1031.8
20260901223603 66 324 0.9 2.6 0.00 0.05 0.05 42 1031.8
20260901223058 64 331 0.9 2.6 0.00 0.05 0.05 46 1031.6
20260901222554 64 276 0.9 2.6 0.00 0.05 0.05 46 1031.5
20260901222050 64 49 1.7 3.5 0.00 0.05 0.05 47 1031.6
20260901221546 64 267 0.9 2.6 0.00 0.05 0.05 45 1031.9
20260901221041 64 272 0.0 2.6 0.00 0.05 0.05 46 1031.6
20260901220541 64 332 0.0 2.6 0.00 0.05 0.05 46 1032.1
20260901220040 64 351 1.7 7.0 0.00 0.05 0.05 46 1031.8
20260901215538 64 10 3.5 6.1 0.00 0.05 0.05 44 1031.9
20260901215032 65 302 4.3 7.0 0.00 0.05 0.05 44 1032.0
20260901214531 65 283 3.5 7.0 0.00 0.05 0.05 44 1032.3
20260901214026 64 348 3.5 3.5 0.00 0.05 0.05 45 1032.0
20260901213525 65 10 1.7 2.6 0.00 0.05 0.05 44 1032.1
20260901213020 65 307 2.6 6.1 0.00 0.05 0.05 44 1032.0
20260901212520 65 318 1.7 5.2 0.00 0.05 0.05 46 1032.3
20260901212017 66 260 0.9 0.9 0.00 0.05 0.05 43 1032.3
20260901211511 66 340 7.8 12.2 0.00 0.05 0.05 43 1032.3
20260901211008 66 317 7.8 11.3 0.00 0.05 0.05 44 1032.0
20260901210503 66 3 7.8 11.3 0.00 0.05 0.05 44 1032.1
20260901205959 67 294 7.8 11.3 0.00 0.05 0.05 43 1032.0
20260901205454 65 327 6.1 11.3 0.00 0.05 0.05 44 1032.4
20260901204948 64 303 4.3 7.8 0.00 0.05 0.05 49 1032.3
20260901204446 65 346 4.3 5.2 0.00 0.05 0.05 47 1032.3
20260901203944 66 330 2.6 5.2 0.00 0.05 0.05 50 1032.3
20260901203434 67 299 0.9 1.7 0.00 0.05 0.05 44 1032.1
20260901202929 67 275 2.6 5.2 0.00 0.05 0.05 38 1032.5
20260901202424 69 337 2.6 6.1 0.00 0.05 0.05 38 1032.3
20260901201920 71 340 1.7 6.1 0.00 0.05 0.05 33 1032.4
20260901201414 70 333 0.9 5.2 0.00 0.05 0.05 34 1032.5
20260901200908 69 260 3.5 5.2 0.00 0.05 0.05 34 1032.5
20260901200403 69 148 8.7 11.3 0.00 0.05 0.05 34 1032.0
20260901195902 68 49 3.5 6.1 0.00 0.05 0.05 37 1032.1
20260901195355 69 330 2.6 6.1 0.00 0.05 0.05 37 1032.5
20260901194850 69 241 3.5 7.0 0.00 0.05 0.05 35 1032.3
20260901194344 69 228 1.7 6.1 0.00 0.05 0.05 37 1032.4
20260901193842 68 112 3.5 12.2 0.00 0.05 0.05 37 1032.4
20260901193340 70 224 4.3 7.8 0.00 0.05 0.05 35 1032.7
20260901192835 68 351 2.6 7.0 0.00 0.05 0.05 38 1032.5
20260901192330 67 323 2.6 5.2 0.00 0.05 0.05 41 1032.1
20260901191826 67 330 7.8 8.7 0.00 0.05 0.05 37 1032.4
20260901191321 68 16 3.5 7.0 0.00 0.05 0.05 39 1032.3
20260901190817 68 287 1.7 9.6 0.00 0.05 0.05 38 1032.4
20260901190311 67 311 4.3 7.0 0.00 0.05 0.05 42 1032.7
20260901185810 68 320 7.8 12.2 0.00 0.05 0.05 41 1032.8
20260901185309 69 246 2.6 8.7 0.00 0.05 0.05 38 1032.8
20260901184805 67 301 6.1 8.7 0.00 0.05 0.05 39 1032.5
20260901184300 71 302 3.5 5.2 0.00 0.05 0.05 38 1032.7
20260901183755 68 259 0.0 5.2 0.00 0.05 0.05 36 1032.8
20260901183255 68 233 3.5 5.2 0.00 0.05 0.05 36 1032.8
20260901182751 68 338 7.0 9.6 0.00 0.05 0.05 40 1033.1
20260901182250 67 257 4.3 6.1 0.00 0.05 0.05 40 1032.8
20260901181745 67 234 7.8 8.7 0.00 0.05 0.05 38 1032.5
20260901181240 66 260 1.7 2.6 0.00 0.05 0.05 39 1033.1
20260901180739 67 281 0.0 6.1 0.00 0.05 0.05 38 1032.9
20260901180238 66 266 0.0 2.6 0.00 0.05 0.05 39 1032.9
20260901175737 67 183 1.7 7.8 0.00 0.05 0.05 41 1032.9
20260901175233 64 321 1.7 3.5 0.00 0.05 0.05 42 1033.1
20260901174727 66 244 2.6 3.5 0.00 0.05 0.05 42 1033.2
20260901174224 65 250 2.6 3.5 0.00 0.05 0.05 43 1033.2
20260901173719 64 284 2.6 3.5 0.00 0.05 0.05 43 1033.3
20260901173213 65 341 2.6 3.5 0.00 0.05 0.05 46 1033.2
20260901172710 67 302 1.7 2.6 0.00 0.05 0.05 42 1033.2
20260901172208 64 287 0.9 8.7 0.00 0.05 0.05 45 1033.1
20260901171707 64 298 2.6 7.0 0.00 0.05 0.05 44 1033.2
20260901171201 64 273 4.3 11.3 0.00 0.05 0.05 44 1033.5
20260901170700 64 254 0.0 2.6 0.00 0.05 0.05 43 1033.5
20260901170155 63 356 2.6 5.2 0.00 0.05 0.05 46 1032.9
20260901165654 63 343 2.6 5.2 0.00 0.05 0.05 49 1033.5
20260901165149 62 50 0.9 5.2 0.00 0.05 0.05 48 1033.2
20260901164645 63 350 3.5 7.8 0.00 0.05 0.05 48 1033.3
20260901164140 64 254 0.0 1.7 0.00 0.05 0.05 44 1033.2
20260901163635 64 270 1.7 3.5 0.00 0.05 0.05 47 1033.2
20260901163134 63 253 1.7 1.7 0.00 0.05 0.05 44 1033.1
20260901162630 63 224 1.7 2.6 0.00 0.05 0.05 48 1032.9
20260901162124 63 243 0.0 1.7 0.00 0.05 0.05 46 1033.2
20260901161623 62 212 1.7 3.5 0.00 0.05 0.05 46 1032.9
20260901161122 63 90 2.6 2.6 0.00 0.05 0.05 47 1033.1
20260901160619 64 263 0.0 0.0 0.00 0.05 0.05 48 1032.8
20260901160114 62 284 2.6 2.6 0.00 0.05 0.05 51 1033.2
20260901155613 62 292 3.5 3.5 0.00 0.05 0.05 51 1033.2
20260901155109 61 271 1.7 1.7 0.00 0.05 0.05 54 1033.1
20260901154608 60 279 0.9 0.9 0.00 0.05 0.05 59 1033.1
20260901154103 60 281 1.7 3.5 0.00 0.05 0.05 57 1032.9
20260901153558 61 257 0.9 2.6 0.00 0.05 0.05 57 1033.2